sat.trackr.live / text

‹ back to catalog

STARLINK-1222

NORAD 45228 · 2020-012BC

PAYLOAD ACTIVE UNKNOWN

§ Identity

Operator
Country
US
Launch date
2020-02-17
Launch site
AFETR
Launch vehicle
Mass (kg)
RCS (m²)

Purposes: comms

External: N2YO · Heavens-Above · Gunter

§ Orbital elements

Epoch: 2026-05-24T19:24:12.480192Z

Period
92.66 min
Inclination
53.0539°
Eccentricity
0.0000739
Mean motion
15.54064175 rev/d
Perigee alt
404.4 km
Apogee alt
405.4 km
Semi-major
6,783.0 km
B*
5.2235e-4
RAAN
336.5718°
Arg perigee
57.3671°
Mean anomaly
302.7410°
Rev number
34,744

§ Raw data

STARLINK-12221 45228U 20012BC  26144.80847778  .00034124  00000+0  52235-3 0  99952 45228  53.0539 336.5718 0000739  57.3671 302.7410 15.54064175347446

JSON: /api/v1/satellites/45228 · /tle

For live sub-satellite position, see the globe view (requires WebGL).

§ Visibility from observer

Set your observer location to see the next 7 days of passes ≥ 10°. The values pass through the URL so the page stays shareable.

No JS? Fill the form by hand. The geolocation button needs JavaScript.